Showing default

LYNK TOWER 6, 59123

Orbit data source: Space-Track

LYNK TOWER 6, 59123 is a payload satellite owned by Lynk (US) in SSO that was launched on Mon, 04 Mar 2024 UTC via an FALCON 9 launch vehicle from the Air Force Western Test Range (AFWTR). Payload-class satellites include a variety of spacecraft equipped with specific instruments for various scientific and technological missions. These include communications satellites like Starlink; space stations such as the ISS; scientific satellites like the Hubble; Earth observation satellites from companies like Planet Labs, Umbra, and HawkEye 360; GPS; miniature CubeSats for education and research; and military/defense satellites.

Loading next visibility...
Identifier
59123, 2024-043AB
Orbit
SSO
Country
Flag of USUS
Related business
Manufacturer
Lynk
Mission
Operational Commercial Communications
Bus & Motor
LYNK SHANNON, Unknown motor
Mass
~85 kg wet, ~85 kg dry
Launch date (UTC)
2024-03-04 (2 years ago)
Launch vehicle
FALCON 9
Launch site
Air Force Western Test Range (AFWTR)
Object type
Payload
Rocket body
Debris
Shape & HBR
Box, 0.5 m
Radar Cross Section
0.650 m², Medium (>0.1 m² and < 1m²)

Expand to show TLE details & history
Last TLE update: 17 hours ago

TLE from 17 hours ago
0 LYNK TOWER 6
1 59123U 24043AB  25291.27297309  .00008858  00000-0  33813-3 0  9991
2 59123  97.5298  59.9513 0011534  27.7551 332.4301 15.26829557 90066
Epoch: 2025-10-18T06:33Z
TLE epoch observation values (Epoch: 2025-10-18T06:33:04.874Z)
Latitude
-0.00003°
Longitude
-65.32537°
Altitude
481.376 km
Speed
7.629 km/s
True Right ascension
03h 59m 48s
True Declination
0° 00' 00"
Sunlit
Object was in full shadow at epoch
Visualization orbit readout
Latitude
Unknown
Longitude
Unknown
Altitude
Unknown
Speed
Unknown
Apparent Right ascension
Unknown
Apparent Declination
Unknown
Sunlit
N/A
Visualization observer readout
Local Sidereal Time
18:39:35
Azimuth
Unknown
Elevation
Unknown
Doppler factor
Unknown
Orbital elements
Apogee altitude
490.172 km
Perigee altitude
474.346 km
Semi-major axis
6,860.396 km
Eccentricity
0.00115
Inclination
97.5298°
RAAN
59.9513°
Arg. of periapsis
27.7551°
True anomaly
332.36885°
Mean anomaly
332.4301°
Eccentric anomaly
332.39948°
Mean motion
3.81961 °/min
Orbital period
94.25 mins
BSTAR
0.00033813
Loading maneuver chart data...
Computing Atmospheric mass density...
Loading historical data...
Loading historical data...
Loading historical data...
Loading historical data...
Loading historical data...
Loading historical data...
Loading historical data...

Documentation

Showing up to 5 results
|